Погода в Сальянах

Азербайджан     39°35′18″N   48°58′27″E
темп.,
°C
ветер,
м/с
пор.,
м/с
влажн.,
%
обл.,
%
осадки,
мм/ч
давл.,
гПа
погр.,
м
15 мая, сб
сб1501:00+18ю227133 0.0 101512
04:00+18вюв22690 0.0 101412
07:00+20ю23650 0.0 101592
10:00+27ю23360 0.0 1015656
13:00+32юв44180 0.0 10142009
16:00+31юв66180 0.0 10131333
19:00+25юв57390 0.0 1014290
22:00+20ююв34640 0.0 101454
16 мая, вс
вс1601:00+18ююв22660 0.0 101311
04:00+18вюв22640 0.0 101311
07:00+19ююз22610 0.0 101485
10:00+26ю23330 0.0 1014662
13:00+32юв56180 0.0 10121678
16:00+30юв67200 0.0 10111129
19:00+25юв58380 0.0 1011386
22:00+20юв47610 0.0 1012137
17 мая, пн
пн1701:00+19ююв33650 0.0 101136
04:00+18ююв22710 0.0 101013
07:00+20ю23675 0.0 1011129
10:00+27ю453926 0.0 1011821
13:00+30ююв553373 0.0 10101152
16:00+30ююв66340 0.0 1008969
19:00+24ююв69498 0.0 1008398
22:00+21вюв2260100 0.0 100960
18 мая, вт
вт1801:00+20вюв346216 0.0 100767
04:00+18ююв237226 0.0 100626
07:00+21вюв346173 0.0 1007126
10:00+26юв3437100 0.0 1007634
13:00+30в6524100 0.0 1006914
16:00+25в91142100 0.6 1007432
19:00+24зсз335241 0.8 1008198
22:00+20з34715 1.4 101164
19 мая, ср
ср1901:00+18з238087 0.5 101143
04:00+18юз33780 0.7 101244
07:00+20ююз22720 0.0 1013118
10:00+25юз11500 0.0 1014976
13:00+29ююв44380 0.0 10131905
16:00+27ююв76450 0.0 10131002
19:00+24ююв68550 0.0 1014550
22:00+20ююв510710 0.0 1015268